SCP
0 0 0 0 0 0 0 -0 0 0 0 0 0 0 0 0 0 0 0 0 0 0
0 0 0 0 0 0 0 0 0 0 0 0 0 0 0 0 0 0 0 0 0 0
0 0 0 0 0 0 0 0 1 0 0 0 0 0 0 0 0 0 0 0 1 0
0 0 0 0 0 0 0 1 0 0 0 0 0 0 0 -0 0 0 0 0 0 0
0 0 0 0 0 0 0 0 0 0 0 0 0 0 0 0 0 0 0 0 0 0
0 0 0 0 0 0 0 0 0 0 0 0 0 0 0 0 0 0 0 0 0 0
0 0 0 0 0 0 0 0 0 0 0 0 0 0 0 0 0 0 0 0 0 0
1 1 0 0 0 0 0 0 0 0 0 0 0 0 0 0 0 0 0 0 0 0
1 1 1 1 1 1 1 0 1 0 0 0 0 0 0 0 0 0 0 0 0 0
1 1 1 1 1 1 1 1 1 1 1 0 1 0 0 0 0 1 1 1 1 0
1 1 1 1 2 2 2 2 1 1 1 1 1 0 0 0 1 1 1 1 1 1
1 1 1 1 1 2 1 2 2 2 2 2 1 0 0 0 1 1 1 1 1 1
1 2 1 1 1 1 2 2 2 2 3 2 2 0 0 0 1 1 0 3 0 0
2 1 1 1 2 2 2 2 2 2 2 2 2 1 0 0 1 1 3 1 0 0
Wind_Speed_500mb
31 23 22 21 20 18 23 22 30 25 16 15 16 16 20 12 9 16 8 8 12 12
36 32 24 25 31 20 21 14 22 20 20 17 17 15 13 12 14 15 11 10 15 7
34 32 33 28 28 29 43 33 16 18 21 19 17 17 19 17 20 17 14 13 11 14
35 34 34 35 32 31 20 16 24 22 23 22 22 22 24 24 16 13 16 16 15 16
36 35 34 36 37 35 34 30 32 32 27 25 26 26 27 21 20 22 18 18 17 18
38 38 39 38 38 39 41 42 38 36 35 31 26 27 29 32 29 27 22 20 24 20
43 42 41 41 44 41 45 46 47 46 45 42 33 34 32 32 31 31 28 24 26 25
48 46 46 49 47 47 48 46 50 49 44 36 38 34 41 36 32 32 32 26 25 26
51 49 49 50 47 49 54 51 49 48 52 49 41 38 43 39 27 28 28 29 27 28
48 50 52 50 51 49 51 54 52 50 50 53 52 48 52 54 42 36 32 32 31 34
45 48 53 54 57 57 52 53 59 57 52 53 52 50 53 56 50 40 37 36 32 36
34 40 48 59 65 63 57 56 58 62 59 54 52 50 52 53 48 42 44 40 36 43
36 41 46 52 59 62 66 66 59 59 62 61 58 53 55 52 42 41 37 48 51 42
43 40 41 45 51 58 66 68 69 67 63 57 56 57 53 49 48 38 46 54 50 48
Wind_Direction_500mb
207 203 198 202 206 208 210 184 220 238 218 237 231 223 227 226 234 246 274 282 295 293
209 199 204 216 215 208 219 188 205 214 220 234 214 209 225 203 237 258 284 270 292 308
201 202 208 211 216 218 205 222 198 204 216 221 229 230 234 227 245 229 231 263 222 286
204 209 209 207 217 226 242 217 234 224 214 222 232 236 234 223 226 228 240 253 268 280
205 205 215 216 212 216 224 227 227 229 232 227 228 226 247 235 229 238 240 250 250 267
217 216 214 220 221 218 224 224 223 228 223 222 232 234 238 235 239 242 251 241 250 259
220 221 224 223 223 226 223 225 224 223 231 230 228 228 233 245 256 235 237 244 259 265
224 225 227 227 227 227 230 231 228 227 231 232 228 224 230 232 235 234 226 239 251 258
234 229 230 235 232 234 233 232 232 232 227 223 225 230 231 234 223 235 241 248 254 260
235 238 240 234 234 237 240 234 233 231 232 229 227 225 231 233 228 230 234 242 250 257
236 242 235 236 231 235 237 240 234 230 231 228 230 231 231 237 235 234 240 244 246 262
238 241 239 242 243 240 237 234 235 233 232 233 231 230 237 238 237 239 245 254 246 247
245 242 243 241 245 244 242 237 232 238 234 235 236 235 236 238 232 237 237 236 251 251
244 254 249 250 251 248 245 241 237 235 232 228 230 238 241 239 233 226 235 240 245 252
Wind_Speed_850mb
31 23 22 21 20 18 23 22 30 25 16 15 16 16 20 12 9 16 8 8 12 12
36 32 24 25 31 20 21 14 22 20 20 17 17 15 13 12 14 15 11 10 15 7
34 32 33 28 28 29 43 33 16 18 21 19 17 17 19 17 20 17 14 13 11 14
35 34 34 35 32 31 20 16 24 22 23 22 22 22 24 24 16 13 16 16 15 16
36 35 34 36 37 35 34 30 32 32 27 25 26 26 27 21 20 22 18 18 17 18
38 38 39 38 38 39 41 42 38 36 35 31 26 27 29 32 29 27 22 20 24 20
43 42 41 41 44 41 45 46 47 46 45 42 33 34 32 32 31 31 28 24 26 25
48 46 46 49 47 47 48 46 50 49 44 36 38 34 41 36 32 32 32 26 25 26
51 49 49 50 47 49 54 51 49 48 52 49 41 38 43 39 27 28 28 29 27 28
48 50 52 50 51 49 51 54 52 50 50 53 52 48 52 54 42 36 32 32 31 34
45 48 53 54 57 57 52 53 59 57 52 53 52 50 53 56 50 40 37 36 32 36
34 40 48 59 65 63 57 56 58 62 59 54 52 50 52 53 48 42 44 40 36 43
36 41 46 52 59 62 66 66 59 59 62 61 58 53 55 52 42 41 37 48 51 42
43 40 41 45 51 58 66 68 69 67 63 57 56 57 53 49 48 38 46 54 50 48
Wind_Direction_850mb
207 203 198 202 206 208 210 184 220 238 218 237 231 223 227 226 234 246 274 282 295 293
209 199 204 216 215 208 219 188 205 214 220 234 214 209 225 203 237 258 284 270 292 308
201 202 208 211 216 218 205 222 198 204 216 221 229 230 234 227 245 229 231 263 222 286
204 209 209 207 217 226 242 217 234 224 214 222 232 236 234 223 226 228 240 253 268 280
205 205 215 216 212 216 224 227 227 229 232 227 228 226 247 235 229 238 240 250 250 267
217 216 214 220 221 218 224 224 223 228 223 222 232 234 238 235 239 242 251 241 250 259
220 221 224 223 223 226 223 225 224 223 231 230 228 228 233 245 256 235 237 244 259 265
224 225 227 227 227 227 230 231 228 227 231 232 228 224 230 232 235 234 226 239 251 258
234 229 230 235 232 234 233 232 232 232 227 223 225 230 231 234 223 235 241 248 254 260
235 238 240 234 234 237 240 234 233 231 232 229 227 225 231 233 228 230 234 242 250 257
236 242 235 236 231 235 237 240 234 230 231 228 230 231 231 237 235 234 240 244 246 262
238 241 239 242 243 240 237 234 235 233 232 233 231 230 237 238 237 239 245 254 246 247
245 242 243 241 245 244 242 237 232 238 234 235 236 235 236 238 232 237 237 236 251 251
244 254 249 250 251 248 245 241 237 235 232 228 230 238 241 239 233 226 235 240 245 252